Location: Igloolik
(69.3800°N, 81.8000°W)
Time: 05:39:51
(UTC-05:00)

Amateur Radio Satellites - All Passes

Search period start: 03 August 2015 05:09
Search period end: 04 August 2015 05:09
Location: Igloolik, 69.3800°N, 81.8000°W

Satellite Date Start Highest point End Downlink Frequencies (MHz)
Time Altitude Azimuth
AIST 2 03 Aug 05:10:20 05:14:25 45° 188° (S) 05:18:28 435.215
POLYITAN 1 03 Aug 05:13:43 05:16:21 16° 358° (N) 05:18:58 437.675
Oscar 19 03 Aug 05:18:04 05:22:42 34° 326° (NW) 05:27:19 437.125/150
BUGSAT 1 03 Aug 05:22:47 05:25:06 15° 356° (N) 05:27:26 437.445
DANDE 03 Aug 05:25:01 05:27:38 84° 295° (WNW) 05:30:21 436.750
HORYU 2 03 Aug 05:27:50 05:32:24 85° 113° (ESE) 05:36:57 437.375
O/OREOS (USA 219) 03 Aug 05:29:01 05:33:34 64° 353° (N) 05:38:08 437.305
CUSAT 1 03 Aug 05:29:34 05:32:11 55° 303° (WNW) 05:35:07 437.405
POPSAT HIP 1 03 Aug 05:29:45 05:32:21 16° 2° (N) 05:34:56 437.405
M-CUBED/EXP-1 PRIME 03 Aug 05:33:28 05:37:41 38° 26° (NNE) 05:42:07 437.505
BEESAT 3 03 Aug 05:37:47 05:41:20 29° 212° (SSW) 05:44:51 437.485
QB50P2 03 Aug 05:37:51 05:40:28 16° 5° (N) 05:43:06 145.880/145.840
GONETS M04 03 Aug 05:40:34 05:49:00 59° 93° (E) 05:57:29
UNISAT 6 03 Aug 05:42:17 05:45:32 20° 14° (NNE) 05:48:51 437.425
Cubesat XI-IV 03 Aug 05:51:57 05:56:23 26° 85° (E) 06:00:50 437.490
Cosmos 2499 03 Aug 05:53:44 06:00:25 32° 72° (ENE) 06:07:36 435.465 / 435.565
MOZHAYETS 4 03 Aug 05:53:49 05:56:45 16° 284° (WNW) 05:59:37
STRAND 1 03 Aug 05:57:19 06:02:29 76° 248° (WSW) 06:07:40 437.568
DUCHIFAT 1 03 Aug 05:59:37 06:02:16 16° 9° (N) 06:04:56 145.980
AUBIESAT-1 03 Aug 06:00:33 06:04:51 42° 31° (NNE) 06:09:20 437.475
QB50P1 03 Aug 06:04:31 06:07:12 17° 11° (N) 06:09:55 145.935-145.965
NANOSAT C BR1 03 Aug 06:04:49 06:07:31 17° 11° (N) 06:10:13 145.865
HO-68 03 Aug 06:08:14 06:10:18 11° 54° (NE) 06:12:36 435.675
CUBESAT XI-V 03 Aug 06:14:15 06:18:37 37° 265° (W) 06:22:58 437.345
PRISM 03 Aug 06:22:22 06:26:31 59° 253° (WSW) 06:30:40 437.425
TIGRISAT 03 Aug 06:24:01 06:27:31 23° 24° (NNE) 06:31:07 435.000
ANTELSAT 03 Aug 06:26:42 06:30:15 23° 25° (NNE) 06:33:54 437.575/2403.000
RS-15 03 Aug 06:27:25 06:37:22 36° 242° (WSW) 06:47:32 29.354- 29.394
JAS-2 03 Aug 06:31:52 06:39:09 55° 318° (NW) 06:46:45 435.910
Gurwin Techsat 1B 03 Aug 06:34:41 06:39:21 31° 331° (NNW) 06:44:00 435.225
BEESAT 2 03 Aug 06:39:05 06:42:09 20° 223° (SW) 06:45:10 435.950
AO-7 03 Aug 06:41:29 06:49:54 82° 311° (NW) 06:58:16 29.400- 29.500
ITAMSAT 1 03 Aug 06:43:54 06:48:26 31° 332° (NNW) 06:52:56 435.822/435.867
CUTE-I 03 Aug 06:47:13 06:52:21 44° 98° (E) 06:57:27 437.470
Cosmos 2504 03 Aug 06:47:20 06:54:25 36° 339° (NNW) 07:01:57 435.465 / 435.565
POLYITAN 1 03 Aug 06:48:00 06:51:02 19° 22° (NNE) 06:54:07 437.675
AIST 2 03 Aug 06:48:40 06:52:25 30° 211° (SSW) 06:56:07 435.215
YUBILEINY 03 Aug 06:55:08 07:03:14 38° 16° (NNE) 07:11:23 435.215
BUGSAT 1 03 Aug 06:56:42 06:59:22 17° 19° (NNE) 07:02:03 437.445
Oscar 19 03 Aug 06:56:59 07:01:01 24° 350° (N) 07:05:03 437.125/150
CANX-2 03 Aug 07:03:10 07:04:09 11° 69° (ENE) 07:05:15 2200.000
POPSAT HIP 1 03 Aug 07:03:53 07:07:02 21° 25° (NNE) 07:10:13 437.405
HORYU 2 03 Aug 07:04:37 07:08:48 38° 316° (NW) 07:12:59 437.375
M-CUBED/EXP-1 PRIME 03 Aug 07:07:35 07:12:05 74° 48° (NE) 07:16:51 437.505
O/OREOS (USA 219) 03 Aug 07:08:48 07:13:23 71° 17° (NNE) 07:17:59 437.305
DANDE 03 Aug 07:09:14 07:11:13 18° 323° (NW) 07:13:17 436.750
QB50P2 03 Aug 07:11:58 07:15:13 22° 28° (NNE) 07:18:30 145.880/145.840
CUSAT 1 03 Aug 07:13:31 07:15:28 17° 331° (NNW) 07:17:33 437.405
BEESAT 3 03 Aug 07:16:18 07:18:16 13° 233° (SW) 07:20:07 437.485
DOVE 4 03 Aug 07:16:36 07:19:02 15° 75° (ENE) 07:21:39 437.250
UNISAT 6 03 Aug 07:17:20 07:21:17 31° 38° (NE) 07:25:21 437.425
Cubesat XI-IV 03 Aug 07:32:04 07:37:26 68° 109° (ESE) 07:42:47 437.490
DUCHIFAT 1 03 Aug 07:33:36 07:36:59 24° 32° (NNE) 07:40:25 145.980
AUBIESAT-1 03 Aug 07:34:47 07:39:17 88° 54° (NE) 07:44:02 437.475
GONETS M04 03 Aug 07:37:08 07:45:52 73° 301° (WNW) 07:54:37
STRAND 1 03 Aug 07:38:04 07:42:30 28° 272° (W) 07:46:53 437.568
QB50P1 03 Aug 07:38:32 07:42:00 25° 34° (NE) 07:45:30 145.935-145.965
GOMX 1 03 Aug 07:38:44 07:42:12 23° 86° (E) 07:45:51 467.674
NANOSAT C BR1 03 Aug 07:38:49 07:42:16 25° 34° (NE) 07:45:46 145.865
BRITE-PL 03 Aug 07:39:28 07:43:09 28° 91° (E) 07:47:01 437.365/2234.400
Cosmos 2499 03 Aug 07:44:38 07:52:24 68° 99° (E) 08:00:51 435.465 / 435.565
HO-68 03 Aug 07:54:59 08:00:58 28° 82° (E) 08:07:02 435.675
CUBESAT XI-V 03 Aug 07:55:11 07:57:26 13° 289° (WNW) 07:59:34 437.345
Cosmos 2491 03 Aug 07:59:04 08:02:35 13° 35° (NE) 08:06:16 435.465 / 435.565
TIGRISAT 03 Aug 07:59:13 08:03:27 42° 47° (NE) 08:07:48 435.000
PRISM 03 Aug 07:59:46 08:02:48 19° 276° (W) 08:05:45 437.425
ANTELSAT 03 Aug 08:01:58 08:06:15 44° 48° (NE) 08:10:39 437.575/2403.000
COMPASS 1 03 Aug 08:03:41 08:06:25 17° 79° (E) 08:09:12 437.405
ZACube-1 03 Aug 08:13:41 08:14:18 10° 67° (ENE) 08:15:03 437.345
Gurwin Techsat 1B 03 Aug 08:14:03 08:18:13 24° 355° (N) 08:22:23 435.225
JAS-2 03 Aug 08:16:33 08:23:11 37° 342° (NNW) 08:30:10 435.910
POLYITAN 1 03 Aug 08:22:13 08:26:05 35° 45° (NE) 08:29:59 437.675
SEEDS 03 Aug 08:22:17 08:25:44 23° 86° (E) 08:29:12 437.485
ITAMSAT 1 03 Aug 08:22:47 08:26:50 24° 356° (N) 08:30:54 435.822/435.867
CUTE-I 03 Aug 08:27:28 08:32:50 74° 302° (WNW) 08:38:09 437.470
AIST 2 03 Aug 08:27:41 08:29:58 14° 233° (SW) 08:32:09 435.215
CUTE 1.7 + AOD 2 03 Aug 08:28:50 08:32:33 28° 90° (E) 08:36:18 437.475
BUGSAT 1 03 Aug 08:30:22 08:33:56 31° 42° (NE) 08:37:31 437.445
FUNcube-1 03 Aug 08:33:18 08:35:21 13° 72° (ENE) 08:37:31 145.935
AO-7 03 Aug 08:34:14 08:42:18 54° 337° (NNW) 08:50:19 29.400- 29.500
Oscar 19 03 Aug 08:35:04 08:39:09 24° 14° (NNE) 08:43:15 437.125/150
CANX-2 03 Aug 08:37:33 08:41:28 32° 93° (E) 08:45:23 2200.000
POPSAT HIP 1 03 Aug 08:38:10 08:42:08 40° 48° (NE) 08:46:08 437.405
RS-15 03 Aug 08:39:55 08:46:10 16° 271° (W) 08:52:03 29.354- 29.394
HORYU 2 03 Aug 08:41:09 08:44:35 22° 340° (NNW) 08:48:00 437.375
UWE-3 03 Aug 08:41:20 08:44:13 17° 77° (ENE) 08:47:12 435.000/436.395/437.385
Oscar 11 03 Aug 08:41:52 08:44:43 17° 79° (E) 08:47:38 145.826/435.025
Cosmos 2504 03 Aug 08:41:57 08:49:01 34° 9° (N) 08:56:31 435.465 / 435.565
AAUSAT CUBESAT 2 03 Aug 08:42:51 08:46:19 24° 87° (E) 08:49:47 437.432
M-CUBED/EXP-1 PRIME 03 Aug 08:42:52 08:47:08 43° 251° (WSW) 08:51:40 437.505
PCSat 03 Aug 08:43:14 08:46:51 19° 117° (ESE) 08:50:34 145.827
CINEMA 3 03 Aug 08:46:05 08:50:00 28° 89° (E) 08:54:06 145.822/145.860
QB50P2 03 Aug 08:46:21 08:50:23 44° 51° (NE) 08:54:28 145.880/145.840
O/OREOS (USA 219) 03 Aug 08:48:20 08:52:53 65° 222° (SW) 08:57:27 437.305
UNISAT 6 03 Aug 08:53:07 08:57:36 72° 61° (ENE) 09:02:14 437.425
YUBILEINY 03 Aug 08:53:24 09:02:04 56° 47° (NE) 09:10:47 435.215
DOVE 4 03 Aug 08:53:44 08:57:58 42° 98° (E) 09:02:27 437.250
CUSAT 1 03 Aug 08:58:16 08:59:20 11° 359° (N) 09:00:29 437.405
SO-50 03 Aug 09:00:24 09:02:56 14° 122° (ESE) 09:05:36 436.795
CUBEBUG 2 03 Aug 09:01:31 09:05:09 23° 85° (E) 09:08:55 437.445
DUCHIFAT 1 03 Aug 09:08:05 09:12:11 54° 55° (NE) 09:16:19 145.980
AUBIESAT-1 03 Aug 09:10:22 09:14:27 34° 256° (WSW) 09:18:45 437.475
Cubesat XI-IV 03 Aug 09:12:20 09:17:32 52° 313° (NW) 09:22:42 437.490
QB50P1 03 Aug 09:13:09 09:17:18 58° 57° (ENE) 09:21:29 145.935-145.965
NANOSAT C BR1 03 Aug 09:13:24 09:17:32 58° 57° (ENE) 09:21:43 145.865
GOMX 1 03 Aug 09:16:44 09:21:05 70° 108° (ESE) 09:25:41 467.674
DX 1 03 Aug 09:16:55 09:17:17 10° 70° (ENE) 09:17:47 434.975-435.025
BRITE-PL 03 Aug 09:18:00 09:22:15 90° 52° (NE) 09:26:43 437.365/2234.400
TIGRISAT 03 Aug 09:35:34 09:40:03 74° 251° (WSW) 09:44:40 435.000
GONETS M04 03 Aug 09:35:56 09:44:11 43° 330° (NNW) 09:52:26
Cosmos 2499 03 Aug 09:38:01 09:45:54 63° 307° (NW) 09:54:26 435.465 / 435.565
ANTELSAT 03 Aug 09:38:25 09:42:55 70° 251° (WSW) 09:47:33 437.575/2403.000
COMPASS 1 03 Aug 09:38:53 09:43:04 51° 103° (ESE) 09:47:13 437.405
VELOX 1 03 Aug 09:39:32 09:40:36 11° 70° (ENE) 09:41:47 145.980
HO-68 03 Aug 09:43:02 09:50:11 62° 108° (ESE) 09:57:20 435.675
DELFI C3 03 Aug 09:47:38 09:51:13 28° 91° (E) 09:54:47 145.870
ZACube-1 03 Aug 09:48:09 09:52:09 30° 91° (E) 09:56:12 437.345
Cosmos 2491 03 Aug 09:49:38 09:56:21 27° 64° (ENE) 10:03:12 435.465 / 435.565
Gurwin Techsat 1B 03 Aug 09:52:36 09:56:59 27° 20° (NNE) 10:01:24 435.225
POLYITAN 1 03 Aug 09:57:29 10:01:45 85° 249° (WSW) 10:06:02 437.675
SEEDS 03 Aug 09:57:54 10:02:13 73° 109° (ESE) 10:06:30 437.485
ESTCUBE 1 03 Aug 10:00:00 10:01:52 12° 72° (ENE) 10:03:52 437.505/2401.250
JAS-2 03 Aug 10:00:28 10:06:50 35° 7° (N) 10:13:38 435.910
ITAMSAT 1 03 Aug 10:00:52 10:05:10 27° 20° (NNE) 10:09:30 435.822/435.867
CUTE 1.7 + AOD 2 03 Aug 10:04:39 10:09:02 87° 112° (ESE) 10:13:22 437.475
AIST 1 03 Aug 10:04:50 10:07:07 14° 75° (ENE) 10:09:28
BUGSAT 1 03 Aug 10:05:02 10:09:04 84° 65° (ENE) 10:13:09 437.445
CUTE-I 03 Aug 10:07:36 10:12:28 36° 325° (NW) 10:17:17 437.470
FUNcube-1 03 Aug 10:08:45 10:12:57 37° 95° (E) 10:17:13 145.935
Oscar 19 03 Aug 10:12:50 10:17:32 37° 38° (NE) 10:22:17 437.125/150
CANX-2 03 Aug 10:13:28 10:17:49 81° 297° (WNW) 10:22:10 2200.000
POPSAT HIP 1 03 Aug 10:13:39 10:17:53 71° 252° (WSW) 10:22:08 437.405
HUMSAT D 03 Aug 10:15:25 10:19:05 26° 89° (E) 10:22:46 437.325/437.525
HORYU 2 03 Aug 10:16:57 10:20:02 18° 3° (N) 10:23:08 437.375
UWE-3 03 Aug 10:17:24 10:21:49 48° 101° (E) 10:26:19 435.000/436.395/437.385
Oscar 11 03 Aug 10:17:36 10:21:55 51° 102° (ESE) 10:26:12 145.826/435.025
AAUSAT CUBESAT 2 03 Aug 10:18:17 10:22:33 77° 109° (ESE) 10:26:47 437.432
UKube-1 03 Aug 10:19:21 10:22:36 20° 85° (E) 10:25:54 .
M-CUBED/EXP-1 PRIME 03 Aug 10:20:23 10:23:07 15° 275° (W) 10:25:52 437.505
QB50P2 03 Aug 10:22:01 10:26:14 63° 253° (WSW) 10:30:28 145.880/145.840
CINEMA 3 03 Aug 10:23:15 10:27:49 82° 110° (ESE) 10:32:35 145.822/145.860
PCSat 03 Aug 10:24:07 10:29:10 40° 141° (SE) 10:34:14 145.827
AO-7 03 Aug 10:26:15 10:34:08 48° 4° (N) 10:41:59 29.400- 29.500
O/OREOS (USA 219) 03 Aug 10:27:56 10:31:46 26° 244° (WSW) 10:35:34 437.305
UNISAT 6 03 Aug 10:30:31 10:34:45 39° 264° (W) 10:39:04 437.425
DOVE 4 03 Aug 10:31:37 10:36:00 65° 300° (WNW) 10:40:39 437.250
Cosmos 2504 03 Aug 10:35:39 10:43:21 46° 38° (NE) 10:51:30 435.465 / 435.565
AISAT 03 Aug 10:36:25 10:39:48 21° 85° (E) 10:43:16 437.250
SO-50 03 Aug 10:38:00 10:42:17 31° 145° (SE) 10:46:38 436.795
CUBEBUG 2 03 Aug 10:38:04 10:42:37 68° 107° (ESE) 10:47:17 437.445
DANDE 03 Aug 10:38:58 10:40:05 12° 19° (NNE) 10:41:16 436.750
CUSAT 1 03 Aug 10:41:14 10:43:15 15° 26° (NNE) 10:45:32 437.405
CUBEBUG 1 03 Aug 10:43:06 10:46:04 18° 81° (E) 10:49:04 437.445
DUCHIFAT 1 03 Aug 10:44:00 10:48:06 49° 258° (WSW) 10:52:14 145.980
AUBIESAT-1 03 Aug 10:48:44 10:50:35 12° 280° (W) 10:52:19 437.475
QB50P1 03 Aug 10:49:16 10:53:20 45° 259° (W) 10:57:27 145.935-145.965
NANOSAT C BR1 03 Aug 10:49:28 10:53:32 45° 259° (W) 10:57:39 145.865
YUBILEINY 03 Aug 10:50:46 10:59:36 80° 255° (WSW) 11:08:27 435.215
DX 1 03 Aug 10:51:05 10:54:58 31° 94° (E) 10:58:52 434.975-435.025
Cubesat XI-IV 03 Aug 10:52:19 10:56:54 29° 336° (NNW) 11:01:27 437.490
GOMX 1 03 Aug 10:55:06 10:59:10 42° 310° (NW) 11:03:27 467.674
BRITE-PL 03 Aug 10:56:46 11:00:34 33° 316° (NW) 11:04:30 437.365/2234.400
50 SAT 03 Aug 11:00:01 11:03:32 29° 93° (E) 11:07:04 437.505
SPROUT 03 Aug 11:09:54 11:12:10 14° 76° (ENE) 11:14:31 437.525
TISAT 1 03 Aug 11:12:51 11:13:52 11° 72° (ENE) 11:15:00 437.305
TIGRISAT 03 Aug 11:13:49 11:17:33 25° 274° (W) 11:21:19 435.000
VELOX 1 03 Aug 11:14:35 11:18:34 32° 94° (E) 11:22:34 145.980
COMPASS 1 03 Aug 11:14:38 11:18:48 52° 305° (NW) 11:22:57 437.405
ANTELSAT 03 Aug 11:16:49 11:20:30 23° 275° (W) 11:24:11 437.575/2403.000
DELFI C3 03 Aug 11:22:38 11:26:46 87° 295° (WNW) 11:30:51 145.870
ZACube-1 03 Aug 11:24:29 11:29:01 90° 107° (ESE) 11:33:37 437.345
HO-68 03 Aug 11:31:02 11:38:11 68° 313° (NW) 11:45:19 435.675
Gurwin Techsat 1B 03 Aug 11:31:05 11:36:07 44° 44° (NE) 11:41:11 435.225
Cosmos 2499 03 Aug 11:33:13 11:40:45 39° 336° (NNW) 11:48:46 435.465 / 435.565
SEEDS 03 Aug 11:33:49 11:37:51 40° 311° (NW) 11:41:52 437.485
POLYITAN 1 03 Aug 11:34:35 11:38:13 26° 270° (W) 11:41:51 437.675
GONETS M04 03 Aug 11:35:34 11:43:27 36° 1° (N) 11:51:21
ESTCUBE 1 03 Aug 11:35:54 11:40:07 36° 96° (E) 11:44:18 437.505/2401.250
ITAMSAT 1 03 Aug 11:38:55 11:43:52 45° 44° (NE) 11:48:50 435.822/435.867
AIST 1 03 Aug 11:39:45 11:43:51 44° 97° (E) 11:47:58
CUTE 1.7 + AOD 2 03 Aug 11:40:43 11:44:41 35° 315° (NW) 11:48:36 437.475
BUGSAT 1 03 Aug 11:41:26 11:45:00 29° 267° (W) 11:48:34 437.445
Cosmos 2491 03 Aug 11:43:11 11:51:36 56° 91° (E) 12:00:03 435.465 / 435.565
JAS-2 03 Aug 11:44:02 11:50:38 46° 33° (NNE) 11:57:52 435.910
FUNcube-1 03 Aug 11:45:07 11:49:37 74° 297° (WNW) 11:54:11 145.935
CUTE-I 03 Aug 11:47:14 11:51:32 25° 350° (N) 11:55:48 437.470
CANX-2 03 Aug 11:49:32 11:53:24 32° 318° (NW) 11:57:13 2200.000
HUMSAT D 03 Aug 11:51:03 11:55:24 82° 111° (ESE) 11:59:46 437.325/437.525
POPSAT HIP 1 03 Aug 11:51:06 11:54:28 22° 274° (W) 11:57:49 437.405
Oscar 19 03 Aug 11:51:22 11:56:33 81° 60° (ENE) 12:01:45 437.125/150
HORYU 2 03 Aug 11:51:56 11:55:32 24° 27° (NNE) 11:59:10 437.375
Oscar 11 03 Aug 11:53:54 11:58:12 54° 304° (NW) 12:02:29 145.826/435.025
AAUSAT CUBESAT 2 03 Aug 11:54:02 11:57:59 38° 312° (NW) 12:01:53 437.432
UWE-3 03 Aug 11:54:03 11:58:31 60° 302° (WNW) 12:03:03 435.000/436.395/437.385
UKube-1 03 Aug 11:55:13 11:59:33 63° 108° (ESE) 12:03:52 .
QB50P2 03 Aug 11:59:45 12:02:56 20° 276° (W) 12:06:05 145.880/145.840
CINEMA 3 03 Aug 12:00:38 12:04:50 39° 313° (NW) 12:09:12 145.822/145.860
PCSat 03 Aug 12:06:44 12:12:07 65° 165° (SSE) 12:17:32 145.827
DOVE 4 03 Aug 12:09:34 12:13:19 28° 323° (NW) 12:17:12 437.250
UNISAT 6 03 Aug 12:10:34 12:12:51 13° 288° (WNW) 12:15:03 437.425
AISAT 03 Aug 12:12:46 12:17:12 66° 108° (ESE) 12:21:36 437.250
CUBEBUG 2 03 Aug 12:14:55 12:19:13 45° 310° (NW) 12:23:40 437.445
SO-50 03 Aug 12:17:26 12:22:10 47° 168° (SSE) 12:26:57 436.795
AO-7 03 Aug 12:17:53 12:26:03 59° 31° (NNE) 12:34:13 29.400- 29.500
CUBEBUG 1 03 Aug 12:19:05 12:23:22 54° 104° (ESE) 12:27:39 437.445
DANDE 03 Aug 12:21:37 12:24:10 25° 45° (NE) 12:27:14 436.750
DUCHIFAT 1 03 Aug 12:22:14 12:24:54 16° 281° (W) 12:27:30 145.980
CUSAT 1 03 Aug 12:23:33 12:26:37 35° 50° (NE) 12:30:30 437.405
DX 1 03 Aug 12:27:19 12:31:42 86° 293° (WNW) 12:36:05 434.975-435.025
QB50P1 03 Aug 12:27:48 12:30:17 15° 283° (WNW) 12:32:41 145.935-145.965
NANOSAT C BR1 03 Aug 12:27:58 12:30:26 15° 282° (WNW) 12:32:51 145.865
Cosmos 2504 03 Aug 12:28:29 12:36:40 81° 65° (ENE) 12:45:17 435.465 / 435.565
Cubesat XI-IV 03 Aug 12:31:38 12:35:51 24° 1° (N) 12:40:04 437.490
GOMX 1 03 Aug 12:33:21 12:36:35 21° 333° (NNW) 12:39:54 467.674
50 SAT 03 Aug 12:34:30 12:38:32 84° 295° (WNW) 12:42:33 437.505
BRITE-PL 03 Aug 12:35:21 12:38:15 18° 339° (NNW) 12:41:11 437.365/2234.400
SPROUT 03 Aug 12:45:16 12:49:23 42° 99° (E) 12:53:31 437.525
TISAT 1 03 Aug 12:47:07 12:50:57 33° 95° (E) 12:54:49 437.305
YUBILEINY 03 Aug 12:47:40 12:55:36 39° 282° (WNW) 13:03:28 435.215
COMPASS 1 03 Aug 12:50:25 12:53:50 24° 327° (NNW) 12:57:13 437.405
VELOX 1 03 Aug 12:51:08 12:55:35 83° 297° (WNW) 13:00:00 145.980
BEESAT 03 Aug 12:57:11 13:00:26 18° 79° (E) 13:03:45 436.000
DELFI C3 03 Aug 12:57:51 13:01:30 31° 317° (NW) 13:05:08 145.870
ZACube-1 03 Aug 13:01:00 13:05:06 35° 315° (NW) 13:09:15 437.345
SEEDS 03 Aug 13:09:39 13:12:51 20° 334° (NNW) 13:16:01 437.485
Gurwin Techsat 1B 03 Aug 13:10:34 13:15:55 82° 245° (WSW) 13:21:19 435.225
ESTCUBE 1 03 Aug 13:12:49 13:17:22 76° 299° (WNW) 13:21:52 437.505/2401.250
CUTE 1.7 + AOD 2 03 Aug 13:16:37 13:19:42 19° 338° (NNW) 13:22:46 437.475
AIST 1 03 Aug 13:17:12 13:21:29 58° 300° (WNW) 13:25:46
ITAMSAT 1 03 Aug 13:17:58 13:23:14 79° 247° (WSW) 13:28:29 435.822/435.867
SWISSCUBE 03 Aug 13:18:00 13:21:49 23° 85° (E) 13:25:41 437.505
HO-68 03 Aug 13:18:37 13:25:17 43° 338° (NNW) 13:31:58 435.675
FUNcube-1 03 Aug 13:21:36 13:25:31 31° 320° (NW) 13:29:29 145.935
CANX-2 03 Aug 13:25:23 13:28:22 18° 341° (NNW) 13:31:19 2200.000
CUTE-I 03 Aug 13:26:04 13:30:24 26° 14° (NNE) 13:34:45 437.470
HUMSAT D 03 Aug 13:26:56 13:30:55 37° 314° (NW) 13:34:54 437.325/437.525
HORYU 2 03 Aug 13:27:09 13:31:27 47° 50° (NE) 13:35:49 437.375
JAS-2 03 Aug 13:28:15 13:35:08 79° 58° (ENE) 13:42:49 435.910
Cosmos 2499 03 Aug 13:28:50 13:36:19 35° 6° (N) 13:44:12 435.465 / 435.565
AAUSAT CUBESAT 2 03 Aug 13:29:40 13:32:45 20° 335° (NNW) 13:35:48 437.432
Oscar 11 03 Aug 13:30:11 13:33:46 25° 327° (NNW) 13:37:19 145.826/435.025
UWE-3 03 Aug 13:30:41 13:34:28 27° 325° (NW) 13:38:20 435.000/436.395/437.385
UKube-1 03 Aug 13:31:29 13:35:39 46° 310° (NW) 13:39:47 .
Oscar 19 03 Aug 13:31:35 13:36:23 38° 265° (W) 13:41:13 437.125/150
GONETS M04 03 Aug 13:34:26 13:42:42 44° 32° (NNE) 13:51:00
CINEMA 3 03 Aug 13:37:50 13:41:12 21° 336° (NNW) 13:44:39 145.822/145.860
Cosmos 2491 03 Aug 13:39:35 13:48:23 76° 298° (WNW) 13:57:11 435.465 / 435.565
ITUPSAT 1 03 Aug 13:40:13 13:44:21 28° 89° (E) 13:48:30 437.325
DOVE 4 03 Aug 13:47:10 13:50:03 18° 346° (NNW) 13:53:01 437.250
AISAT 03 Aug 13:49:29 13:53:43 45° 311° (NW) 13:57:56 437.250
PCSat 03 Aug 13:49:56 13:55:21 69° 190° (S) 14:00:47 145.827
CUBEBUG 2 03 Aug 13:51:38 13:55:10 23° 332° (NNW) 13:58:46 437.445
CUBEBUG 1 03 Aug 13:55:34 13:59:47 51° 307° (NW) 14:04:00 437.445
SO-50 03 Aug 13:57:29 14:02:15 47° 191° (SSW) 14:07:02 436.795
DX 1 03 Aug 14:03:42 14:07:38 34° 319° (NW) 14:11:34 434.975-435.025
DANDE 03 Aug 14:04:31 14:07:35 85° 243° (WSW) 14:11:29 436.750
CUSAT 1 03 Aug 14:05:57 14:09:20 65° 250° (WSW) 14:13:45 437.405
50 SAT 03 Aug 14:09:14 14:12:46 30° 317° (NW) 14:16:17 437.505
Cubesat XI-IV 03 Aug 14:10:13 14:14:49 30° 25° (NNE) 14:19:25 437.490
AO-7 03 Aug 14:10:16 14:18:42 86° 236° (SW) 14:27:09 29.400- 29.500
GOMX 1 03 Aug 14:10:58 14:13:33 16° 357° (N) 14:16:11 467.674
STARS 03 Aug 14:11:53 14:13:55 13° 74° (ENE) 14:16:05 437.465
BRITE-PL 03 Aug 14:13:05 14:15:34 15° 4° (N) 14:18:04 437.365/2234.400
Cosmos 2504 03 Aug 14:20:51 14:28:39 51° 271° (W) 14:36:48 435.465 / 435.565
SPROUT 03 Aug 14:21:25 14:25:42 63° 302° (WNW) 14:29:58 437.525
TISAT 1 03 Aug 14:22:52 14:27:06 78° 298° (WNW) 14:31:20 437.305
COMPASS 1 03 Aug 14:25:47 14:28:23 16° 350° (N) 14:30:59 437.405
VELOX 1 03 Aug 14:27:49 14:31:48 33° 319° (NW) 14:35:45 145.980
DELFI C3 03 Aug 14:32:56 14:35:40 17° 339° (NNW) 14:38:23 145.870
BEESAT 03 Aug 14:34:42 14:39:24 51° 102° (ESE) 14:44:06 436.000
ZACube-1 03 Aug 14:37:18 14:40:34 20° 338° (NNW) 14:43:50 437.345
YUBILEINY 03 Aug 14:44:25 14:50:05 19° 310° (NW) 14:55:34 435.215
KKS-1 03 Aug 14:44:37 14:48:16 24° 88° (E) 14:51:56 437.445
SEEDS 03 Aug 14:44:52 14:47:26 16° 357° (N) 14:50:00 437.485
ESTCUBE 1 03 Aug 14:49:48 14:53:50 32° 321° (NW) 14:57:48 437.505/2401.250
CUTE 1.7 + AOD 2 03 Aug 14:51:46 14:54:22 16° 1° (N) 14:56:59 437.475
Gurwin Techsat 1B 03 Aug 14:51:55 14:56:39 31° 270° (W) 15:01:22 435.225
SWISSCUBE 03 Aug 14:55:44 15:00:33 67° 109° (ESE) 15:05:20 437.505
AIST 1 03 Aug 14:56:23 14:59:59 24° 324° (NW) 15:03:32
FUNcube-1 03 Aug 14:57:46 15:00:51 19° 343° (NNW) 15:03:58 145.935
ITAMSAT 1 03 Aug 14:58:55 15:03:30 29° 271° (W) 15:08:03 435.822/435.867
CANX-2 03 Aug 15:00:23 15:03:01 16° 4° (N) 15:05:40 2200.000
HUMSAT D 03 Aug 15:02:41 15:05:48 20° 336° (NNW) 15:08:56 437.325/437.525
HORYU 2 03 Aug 15:03:36 15:08:05 64° 253° (WSW) 15:12:35 437.375
CUTE-I 03 Aug 15:04:35 15:09:32 39° 38° (NE) 15:14:30 437.470
AAUSAT CUBESAT 2 03 Aug 15:04:39 15:07:08 15° 358° (N) 15:09:36 437.432
HO-68 03 Aug 15:05:27 15:11:55 38° 4° (N) 15:18:24 435.675
Oscar 11 03 Aug 15:06:00 15:08:50 17° 351° (N) 15:11:39 145.826/435.025
UWE-3 03 Aug 15:06:55 15:09:55 18° 348° (NNW) 15:12:58 435.000/436.395/437.385
UKube-1 03 Aug 15:07:39 15:11:04 23° 333° (NNW) 15:14:28 .
JAS-2 03 Aug 15:14:04 15:20:44 51° 264° (W) 15:28:07 435.910
CINEMA 3 03 Aug 15:14:20 15:17:11 17° 360° (N) 15:20:05 145.822/145.860
Oscar 19 03 Aug 15:14:31 15:17:18 14° 289° (WNW) 15:19:57 437.125/150
ITUPSAT 1 03 Aug 15:18:05 15:22:56 80° 112° (ESE) 15:27:45 437.325
Cosmos 2499 03 Aug 15:23:38 15:31:41 46° 36° (NE) 15:40:09 435.465 / 435.565
DOVE 4 03 Aug 15:23:47 15:26:33 17° 10° (N) 15:29:24 437.250
AISAT 03 Aug 15:26:05 15:29:34 23° 334° (NNW) 15:33:02 437.250
CUBEBUG 2 03 Aug 15:27:47 15:30:40 17° 356° (N) 15:33:37 437.445
CUBEBUG 1 03 Aug 15:32:01 15:35:31 24° 329° (NNW) 15:38:58 437.445
GONETS M04 03 Aug 15:32:12 15:40:58 75° 61° (ENE) 15:49:44
PCSat 03 Aug 15:33:13 15:38:26 47° 213° (SSW) 15:43:37 145.827
SO-50 03 Aug 15:37:46 15:42:09 31° 215° (SW) 15:46:29 436.795
Cosmos 2491 03 Aug 15:38:19 15:46:38 45° 328° (NNW) 15:54:56 435.465 / 435.565
DX 1 03 Aug 15:39:50 15:43:00 20° 342° (NNW) 15:46:09 434.975-435.025
50 SAT 03 Aug 15:43:51 15:46:26 17° 340° (NNW) 15:49:00 437.505
STARS 03 Aug 15:47:28 15:51:37 38° 98° (E) 15:55:48 437.465
GOMX 1 03 Aug 15:47:29 15:50:27 19° 22° (NNE) 15:53:31 467.674
DANDE 03 Aug 15:47:59 15:50:24 20° 265° (W) 15:53:13 436.750
CUSAT 1 03 Aug 15:48:59 15:51:30 18° 268° (W) 15:54:24 437.405
Cubesat XI-IV 03 Aug 15:48:59 15:54:13 54° 49° (NE) 15:59:27 437.490
BRITE-PL 03 Aug 15:49:48 15:52:56 21° 28° (NNE) 15:56:07 437.365/2234.400
MOZHAYETS 4 03 Aug 15:54:03 15:57:41 22° 83° (E) 16:01:20
SPROUT 03 Aug 15:57:38 16:01:15 27° 324° (NW) 16:04:52 437.525
TISAT 1 03 Aug 15:58:47 16:02:29 30° 320° (NW) 16:06:11 437.305
COMPASS 1 03 Aug 16:00:04 16:02:46 17° 14° (NNE) 16:05:29 437.405
VELOX 1 03 Aug 16:04:14 16:07:26 20° 343° (NNW) 16:10:36 145.980
AO-7 03 Aug 16:04:34 16:12:32 44° 263° (W) 16:20:28 29.400- 29.500
DELFI C3 03 Aug 16:07:14 16:09:30 15° 3° (N) 16:11:46 145.870
BEESAT 03 Aug 16:12:40 16:17:25 60° 306° (NW) 16:22:09 436.000
ZACube-1 03 Aug 16:12:51 16:15:40 17° 2° (N) 16:18:31 437.345
Cosmos 2504 03 Aug 16:13:06 16:19:19 24° 297° (WNW) 16:25:36 435.465 / 435.565
SEEDS 03 Aug 16:18:59 16:21:58 19° 21° (NNE) 16:24:58 437.485
KKS-1 03 Aug 16:21:07 16:25:37 74° 111° (ESE) 16:30:06 437.445
CUTE 1.7 + AOD 2 03 Aug 16:25:54 16:29:03 20° 25° (NNE) 16:32:14 437.475
ESTCUBE 1 03 Aug 16:26:28 16:29:43 20° 345° (NNW) 16:32:56 437.505/2401.250
FUNcube-1 03 Aug 16:33:03 16:35:54 17° 7° (N) 16:38:47 145.935
SWISSCUBE 03 Aug 16:33:44 16:38:22 48° 311° (NW) 16:42:58 437.505
CANX-2 03 Aug 16:34:28 16:37:45 22° 28° (NNE) 16:41:04 2200.000
AIST 1 03 Aug 16:36:25 16:39:05 16° 350° (N) 16:41:45
Gurwin Techsat 1B 03 Aug 16:36:35 16:38:28 12° 295° (WNW) 16:40:13 435.225
HUMSAT D 03 Aug 16:37:43 16:40:19 16° 360° (N) 16:42:56 437.325/437.525
AAUSAT CUBESAT 2 03 Aug 16:38:33 16:41:29 19° 22° (NNE) 16:44:27 437.432
Oscar 11 03 Aug 16:40:49 16:43:44 18° 14° (NNE) 16:46:42 145.826/435.025
YUBILEINY 03 Aug 16:41:49 16:43:11 10° 339° (NNW) 16:44:24 435.215
HORYU 2 03 Aug 16:42:05 16:45:34 21° 276° (W) 16:49:00 437.375
UWE-3 03 Aug 16:42:11 16:45:09 18° 12° (NNE) 16:48:12 435.000/436.395/437.385
UKube-1 03 Aug 16:43:13 16:46:05 17° 357° (N) 16:48:57 .
ITAMSAT 1 03 Aug 16:43:34 16:44:52 11° 295° (WNW) 16:46:00 435.822/435.867
CUTE-I 03 Aug 16:43:54 16:49:17 84° 62° (ENE) 16:54:41 437.470
CINEMA 3 03 Aug 16:49:53 16:53:09 21° 24° (NNE) 16:56:32 145.822/145.860
HO-68 03 Aug 16:51:50 16:58:39 49° 30° (NNE) 17:05:29 435.675
ITUPSAT 1 03 Aug 16:56:07 17:00:39 42° 315° (NW) 17:05:09 437.325
DOVE 4 03 Aug 16:59:44 17:03:13 26° 35° (NE) 17:06:50 437.250
AISAT 03 Aug 17:02:04 17:05:00 18° 357° (N) 17:07:56 437.250
JAS-2 03 Aug 17:02:17 17:07:42 23° 291° (WNW) 17:13:24 435.910
CUBEBUG 2 03 Aug 17:02:56 17:06:06 20° 19° (NNE) 17:09:22 437.445
CUBEBUG 1 03 Aug 17:07:57 17:10:45 17° 353° (N) 17:13:33 437.445
DX 1 03 Aug 17:15:10 17:18:03 18° 6° (N) 17:20:58 434.975-435.025
PCSat 03 Aug 17:16:42 17:20:56 23° 237° (WSW) 17:25:06 145.827
Cosmos 2499 03 Aug 17:17:30 17:26:03 79° 64° (ENE) 17:34:59 435.465 / 435.565
50 SAT 03 Aug 17:17:39 17:19:47 14° 3° (N) 17:21:54 437.505
SO-50 03 Aug 17:18:45 17:21:31 15° 237° (WSW) 17:24:11 436.795
GOMX 1 03 Aug 17:23:56 17:27:44 35° 46° (NE) 17:31:40 467.674
STARS 03 Aug 17:23:58 17:28:24 71° 300° (WNW) 17:32:49 437.465
BRITE-PL 03 Aug 17:26:49 17:30:47 44° 52° (NE) 17:34:48 437.365/2234.400
Cubesat XI-IV 03 Aug 17:28:59 17:34:21 65° 252° (WSW) 17:39:43 437.490
GONETS M04 03 Aug 17:29:18 17:37:45 57° 268° (W) 17:46:11
MOZHAYETS 4 03 Aug 17:31:06 17:35:46 65° 107° (ESE) 17:40:24
SPROUT 03 Aug 17:33:29 17:36:18 17° 347° (NNW) 17:39:06 437.525
COMPASS 1 03 Aug 17:33:50 17:37:23 26° 37° (NE) 17:40:59 437.405
TISAT 1 03 Aug 17:34:27 17:37:19 18° 343° (NNW) 17:40:10 437.305
Cosmos 2491 03 Aug 17:37:58 17:45:54 36° 359° (N) 17:53:48 435.465 / 435.565
VELOX 1 03 Aug 17:39:49 17:42:46 18° 6° (N) 17:45:44 145.980
DELFI C3 03 Aug 17:40:28 17:43:23 19° 26° (NNE) 17:46:18 145.870
ZACube-1 03 Aug 17:47:29 17:50:48 22° 26° (NNE) 17:54:13 437.345
BEESAT 03 Aug 17:50:34 17:54:41 29° 329° (NNW) 17:58:47 436.000
PRISM 03 Aug 17:51:47 17:52:35 11° 72° (ENE) 17:53:30 437.425
SEEDS 03 Aug 17:52:59 17:56:51 33° 44° (NE) 18:00:43 437.485
STRAND 1 03 Aug 17:53:25 17:56:31 16° 74° (ENE) 17:59:43 437.568
CUBESAT XI-V 03 Aug 17:55:36 17:59:33 27° 88° (E) 18:03:31 437.345
KKS-1 03 Aug 17:57:54 18:02:07 42° 313° (NW) 18:06:20 437.445
CUTE 1.7 + AOD 2 03 Aug 18:00:08 18:04:08 38° 48° (NE) 18:08:10 437.475
AO-7 03 Aug 18:01:58 18:07:54 20° 291° (WNW) 18:13:39 29.400- 29.500
ESTCUBE 1 03 Aug 18:02:16 18:05:20 18° 8° (N) 18:08:26 437.505/2401.250
Cosmos 2504 03 Aug 18:05:48 18:08:38 12° 324° (NW) 18:11:20 435.465 / 435.565
FUNcube-1 03 Aug 18:07:34 18:11:03 24° 30° (NNE) 18:14:38 145.935
CANX-2 03 Aug 18:08:50 18:12:55 43° 51° (NE) 18:17:03 2200.000
SWISSCUBE 03 Aug 18:11:33 18:15:29 26° 335° (NNW) 18:19:24 437.505
HUMSAT D 03 Aug 18:11:45 18:14:49 20° 24° (NNE) 18:17:57 437.325/437.525
AAUSAT CUBESAT 2 03 Aug 18:12:22 18:16:11 34° 45° (NE) 18:20:02 437.432
Oscar 11 03 Aug 18:15:09 18:18:54 28° 38° (NE) 18:22:40 145.826/435.025
AIST 1 03 Aug 18:15:38 18:18:25 17° 15° (NNE) 18:21:12
UWE-3 03 Aug 18:16:55 18:20:37 27° 35° (NE) 18:24:25 435.000/436.395/437.385
UKube-1 03 Aug 18:17:51 18:21:02 20° 20° (NNE) 18:24:15 .
CUTE-I 03 Aug 18:24:53 18:29:54 38° 265° (W) 18:34:54 437.470
CINEMA 3 03 Aug 18:25:30 18:29:30 39° 47° (NE) 18:33:42 145.822/145.860
ITUPSAT 1 03 Aug 18:33:52 18:37:43 24° 339° (NNW) 18:41:31 437.325
DOVE 4 03 Aug 18:36:19 18:40:26 60° 58° (ENE) 18:44:44 437.250
AISAT 03 Aug 18:37:07 18:40:23 21° 21° (NNE) 18:43:41 437.250
CUBEBUG 2 03 Aug 18:37:54 18:41:51 34° 43° (NE) 18:45:56 437.445
HO-68 03 Aug 18:38:49 18:46:00 83° 56° (NE) 18:53:14 435.675
CUBEBUG 1 03 Aug 18:42:52 18:45:53 19° 17° (NNE) 18:48:54 437.445
DX 1 03 Aug 18:49:43 18:53:12 24° 29° (NNE) 18:56:45 434.975-435.025
50 SAT 03 Aug 18:50:22 18:53:10 19° 26° (NNE) 18:55:59 437.505
JAS-2 03 Aug 18:55:01 18:56:04 10° 319° (NW) 18:56:54 435.910
STARS 03 Aug 19:00:32 19:04:23 30° 323° (NW) 19:08:15 437.465
GOMX 1 03 Aug 19:01:31 19:05:41 82° 249° (WSW) 19:09:59 467.674
RS-15 03 Aug 19:03:33 19:08:42 15° 87° (E) 19:14:24 29.354- 29.394
BRITE-PL 03 Aug 19:05:13 19:09:21 59° 255° (WSW) 19:13:30 437.365/2234.400
COMPASS 1 03 Aug 19:08:19 19:12:32 63° 60° (ENE) 19:16:46 437.405
SPROUT 03 Aug 19:08:21 19:11:07 17° 11° (N) 19:13:54 437.525
MOZHAYETS 4 03 Aug 19:08:28 19:12:57 47° 310° (NW) 19:17:25
TISAT 1 03 Aug 19:09:16 19:11:52 16° 6° (N) 19:14:28 437.305
Cosmos 2499 03 Aug 19:10:52 19:19:04 54° 269° (W) 19:27:34 435.465 / 435.565
Cubesat XI-IV 03 Aug 19:11:03 19:15:27 25° 276° (W) 19:19:49 437.490
DELFI C3 03 Aug 19:13:51 19:17:38 37° 48° (NE) 19:21:27 145.870
VELOX 1 03 Aug 19:14:39 19:18:13 25° 30° (NNE) 19:21:49 145.980
ZACube-1 03 Aug 19:22:16 19:26:21 42° 49° (NE) 19:30:35 437.345
PRISM 03 Aug 19:25:34 19:29:20 33° 96° (E) 19:33:06 437.425
GONETS M04 03 Aug 19:26:08 19:33:01 27° 295° (WNW) 19:39:47
BEESAT 03 Aug 19:27:55 19:31:27 21° 352° (N) 19:34:59 436.000
SEEDS 03 Aug 19:28:01 19:32:19 88° 70° (ENE) 19:36:39 437.485
STRAND 1 03 Aug 19:32:12 19:37:07 43° 99° (E) 19:42:01 437.568
CUBESAT XI-V 03 Aug 19:33:00 19:37:40 81° 110° (ESE) 19:42:18 437.345
KKS-1 03 Aug 19:34:31 19:37:58 22° 336° (NNW) 19:41:25 437.445
CUTE 1.7 + AOD 2 03 Aug 19:35:32 19:39:52 78° 250° (WSW) 19:44:14 437.475
Cosmos 2491 03 Aug 19:36:58 19:45:12 43° 29° (NNE) 19:53:27 435.465 / 435.565
ESTCUBE 1 03 Aug 19:37:22 19:41:07 26° 32° (NNE) 19:44:53 437.505/2401.250
FUNcube-1 03 Aug 19:42:29 19:46:42 50° 53° (NE) 19:51:01 145.935
CANX-2 03 Aug 19:44:27 19:48:46 66° 253° (WSW) 19:53:06 2200.000
HUMSAT D 03 Aug 19:45:48 19:49:42 37° 46° (NE) 19:53:41 437.325/437.525
AAUSAT CUBESAT 2 03 Aug 19:47:15 19:51:30 89° 233° (SW) 19:55:47 437.432
SWISSCUBE 03 Aug 19:48:42 19:52:12 20° 358° (N) 19:55:40 437.505
Oscar 11 03 Aug 19:50:15 19:54:36 68° 60° (ENE) 19:58:59 145.826/435.025
UWE-3 03 Aug 19:52:17 19:56:35 63° 59° (ENE) 20:01:03 435.000/436.395/437.385
UKube-1 03 Aug 19:52:21 19:56:19 36° 43° (NE) 20:00:18 .
AIST 1 03 Aug 19:53:42 19:57:26 28° 40° (NE) 20:01:10
CINEMA 3 03 Aug 20:02:16 20:06:32 75° 249° (WSW) 20:11:02 145.822/145.860
CUTE-I 03 Aug 20:08:39 20:11:36 14° 290° (WNW) 20:14:25 437.470
ITUPSAT 1 03 Aug 20:10:55 20:14:25 20° 3° (N) 20:17:55 437.325
AISAT 03 Aug 20:12:03 20:16:06 37° 44° (NE) 20:20:11 437.250
CUBEBUG 2 03 Aug 20:13:52 20:18:13 88° 60° (ENE) 20:22:45 437.445
DOVE 4 03 Aug 20:14:27 20:18:27 43° 261° (W) 20:22:37 437.250
CUBEBUG 1 03 Aug 20:17:28 20:21:17 31° 40° (NE) 20:25:07 437.445
50 SAT 03 Aug 20:23:16 20:26:56 37° 48° (NE) 20:30:39 437.505
YUBILEINY 03 Aug 20:23:54 20:28:19 15° 41° (NE) 20:32:55 435.215
DX 1 03 Aug 20:24:36 20:28:49 50° 52° (NE) 20:33:03 434.975-435.025
HO-68 03 Aug 20:27:26 20:34:21 48° 261° (W) 20:41:18 435.675
STARS 03 Aug 20:36:45 20:39:51 19° 346° (NNW) 20:42:57 437.465
GOMX 1 03 Aug 20:41:04 20:44:32 25° 273° (W) 20:48:02 467.674
SPROUT 03 Aug 20:42:36 20:46:08 26° 34° (NE) 20:49:41 437.525
TISAT 1 03 Aug 20:43:13 20:46:30 23° 30° (NNE) 20:49:49 437.305
COMPASS 1 03 Aug 20:44:23 20:48:26 41° 262° (W) 20:52:30 437.405
MOZHAYETS 4 03 Aug 20:45:42 20:49:26 24° 332° (NNW) 20:53:09
BRITE-PL 03 Aug 20:45:53 20:48:50 18° 278° (W) 20:51:44 437.365/2234.400
DELFI C3 03 Aug 20:48:26 20:52:32 75° 250° (WSW) 20:56:40 145.870
VELOX 1 03 Aug 20:49:51 20:54:08 51° 53° (NE) 20:58:26 145.980
ZACube-1 03 Aug 20:58:15 21:02:35 71° 251° (WSW) 21:07:04 437.345
PRISM 03 Aug 21:00:59 21:05:10 77° 298° (WNW) 21:09:17 437.425
Cosmos 2499 03 Aug 21:04:01 21:10:41 26° 295° (WNW) 21:17:26 435.465 / 435.565
BEESAT 03 Aug 21:04:24 21:08:05 22° 16° (NNE) 21:11:47 436.000
SEEDS 03 Aug 21:04:49 21:08:37 29° 269° (W) 21:12:24 437.485
RS-15 03 Aug 21:07:57 21:17:18 35° 116° (ESE) 21:27:11 29.354- 29.394
KKS-1 03 Aug 21:10:27 21:13:26 18° 360° (N) 21:16:26 437.445
CUBESAT XI-V 03 Aug 21:10:35 21:14:55 39° 314° (NW) 21:19:12 437.345
STRAND 1 03 Aug 21:11:33 21:16:42 73° 301° (WNW) 21:21:48 437.568
CUTE 1.7 + AOD 2 03 Aug 21:12:51 21:16:26 25° 273° (W) 21:20:01 437.475
ESTCUBE 1 03 Aug 21:12:56 21:17:23 56° 55° (NE) 21:21:51 437.505/2401.250
TIGRISAT 03 Aug 21:13:18 21:15:29 13° 72° (ENE) 21:17:47 435.000
ANTELSAT 03 Aug 21:16:16 21:18:40 14° 73° (ENE) 21:21:11 437.575/2403.000
FUNcube-1 03 Aug 21:18:47 21:23:03 56° 257° (WSW) 21:27:26 145.935
HUMSAT D 03 Aug 21:20:58 21:25:13 81° 249° (WSW) 21:29:33 437.325/437.525
CANX-2 03 Aug 21:22:06 21:25:29 21° 276° (W) 21:28:48 2200.000
GONETS M04 03 Aug 21:23:03 21:26:48 13° 324° (NW) 21:30:23
AAUSAT CUBESAT 2 03 Aug 21:23:57 21:27:37 28° 270° (W) 21:31:18 437.432
SWISSCUBE 03 Aug 21:25:01 21:28:52 24° 22° (NNE) 21:32:43 437.505
Oscar 11 03 Aug 21:26:56 21:31:04 39° 263° (W) 21:35:13 145.826/435.025
UKube-1 03 Aug 21:27:51 21:32:12 86° 244° (WSW) 21:36:35 .
UWE-3 03 Aug 21:29:12 21:33:22 43° 262° (W) 21:37:39 435.000/436.395/437.385
AIST 1 03 Aug 21:31:27 21:35:46 73° 65° (ENE) 21:40:02
Cosmos 2491 03 Aug 21:34:48 21:43:34 72° 59° (ENE) 21:52:19 435.465 / 435.565
CINEMA 3 03 Aug 21:40:59 21:44:30 24° 274° (W) 21:48:07 145.822/145.860
M-CUBED/EXP-1 PRIME 03 Aug 21:44:24 21:48:14 23° 95° (E) 21:52:07 437.505
POPSAT HIP 1 03 Aug 21:45:58 21:46:44 10° 70° (ENE) 21:47:38 437.405
ITUPSAT 1 03 Aug 21:47:12 21:51:11 26° 27° (NNE) 21:55:10 437.325
AISAT 03 Aug 21:48:01 21:52:27 85° 245° (WSW) 21:56:54 437.250
CUBEBUG 2 03 Aug 21:51:36 21:55:27 30° 269° (W) 21:59:24 437.445
CUBEBUG 1 03 Aug 21:52:54 21:57:15 77° 63° (ENE) 22:01:37 437.445
QB50P2 03 Aug 21:53:47 21:55:23 12° 73° (ENE) 21:57:05 145.880/145.840
DOVE 4 03 Aug 21:55:12 21:57:28 14° 286° (WNW) 21:59:40 437.250
50 SAT 03 Aug 21:57:23 22:01:20 73° 250° (WSW) 22:05:21 437.505
DX 1 03 Aug 22:00:49 22:05:06 56° 254° (WSW) 22:09:25 434.975-435.025
UNISAT 6 03 Aug 22:07:12 22:11:00 24° 86° (E) 22:14:52 437.425
AUBIESAT-1 03 Aug 22:10:52 22:15:00 29° 99° (E) 22:19:09 437.475
STARS 03 Aug 22:12:04 22:15:04 18° 10° (N) 22:18:07 437.465
DUCHIFAT 1 03 Aug 22:14:29 22:16:52 15° 78° (ENE) 22:19:18 145.980
YUBILEINY 03 Aug 22:15:06 22:22:20 31° 69° (ENE) 22:29:43 435.215
SPROUT 03 Aug 22:17:26 22:21:39 58° 56° (ENE) 22:25:54 437.525
TISAT 1 03 Aug 22:17:34 22:21:36 48° 53° (NE) 22:25:41 437.305
HO-68 03 Aug 22:18:46 22:24:02 21° 287° (WNW) 22:29:12 435.675
NANOSAT C BR1 03 Aug 22:19:58 22:22:34 16° 79° (E) 22:25:15 145.865
QB50P1 03 Aug 22:19:58 22:22:36 16° 79° (E) 22:25:19 145.935-145.965
MOZHAYETS 4 03 Aug 22:22:19 22:25:28 18° 356° (N) 22:28:38
COMPASS 1 03 Aug 22:23:02 22:25:15 14° 285° (WNW) 22:27:23 437.405
DELFI C3 03 Aug 22:24:57 22:28:16 23° 273° (W) 22:31:32 145.870
VELOX 1 03 Aug 22:26:23 22:30:44 55° 255° (WSW) 22:35:07 145.980
ZACube-1 03 Aug 22:36:13 22:39:42 23° 275° (W) 22:43:15 437.345
PRISM 03 Aug 22:36:33 22:40:13 30° 321° (NW) 22:43:50 437.425
BEESAT 03 Aug 22:40:37 22:44:59 36° 40° (NE) 22:49:24 436.000
KKS-1 03 Aug 22:45:30 22:48:54 22° 23° (NNE) 22:52:20 437.445
CUBESAT XI-V 03 Aug 22:47:57 22:51:30 22° 337° (NNW) 22:55:00 437.345
TIGRISAT 03 Aug 22:49:13 22:53:34 37° 96° (E) 22:57:58 435.000
ESTCUBE 1 03 Aug 22:49:56 22:54:23 51° 257° (WSW) 22:58:50 437.505/2401.250
STRAND 1 03 Aug 22:50:49 22:55:26 34° 325° (NW) 23:00:02 437.568
ANTELSAT 03 Aug 22:52:20 22:56:44 39° 96° (E) 23:01:12 437.575/2403.000
FUNcube-1 03 Aug 22:57:14 23:00:21 18° 280° (W) 23:03:26 145.935
Cosmos 2499 03 Aug 22:57:24 23:00:56 13° 323° (NW) 23:04:20 435.465 / 435.565
HUMSAT D 03 Aug 22:58:00 23:01:34 25° 272° (W) 23:05:09 437.325/437.525
BEESAT 3 03 Aug 22:59:32 23:00:31 11° 123° (ESE) 23:01:35 437.485
SWISSCUBE 03 Aug 23:01:23 23:05:56 43° 46° (NE) 23:10:29 437.505
POLYITAN 1 03 Aug 23:04:19 23:07:59 27° 90° (E) 23:11:41 437.675
UKube-1 03 Aug 23:05:08 23:08:54 28° 268° (W) 23:12:39 .
Oscar 11 03 Aug 23:06:17 23:08:29 13° 286° (WNW) 23:10:35 145.826/435.025
BUGSAT 1 03 Aug 23:08:23 23:11:31 21° 86° (E) 23:14:42 437.445
UWE-3 03 Aug 23:08:36 23:11:06 15° 286° (WNW) 23:13:32 435.000/436.395/437.385
AIST 1 03 Aug 23:09:18 23:13:13 34° 268° (W) 23:17:04
RS-15 03 Aug 23:16:57 23:27:42 59° 146° (SE) 23:39:00 29.354- 29.394
M-CUBED/EXP-1 PRIME 03 Aug 23:19:02 23:23:49 63° 117° (ESE) 23:28:37 437.505
POPSAT HIP 1 03 Aug 23:20:08 23:23:59 32° 94° (E) 23:27:51 437.405
ITUPSAT 1 03 Aug 23:23:42 23:28:22 50° 50° (NE) 23:33:03 437.325
AISAT 03 Aug 23:25:48 23:29:37 27° 269° (W) 23:33:25 437.250
QB50P2 03 Aug 23:28:35 23:32:33 36° 96° (E) 23:36:32 145.880/145.840
Cosmos 2504 03 Aug 23:29:09 23:33:48 18° 52° (NE) 23:38:48 435.465 / 435.565
CUBEBUG 1 03 Aug 23:30:01 23:34:01 34° 265° (W) 23:38:00 437.445
Cosmos 2491 03 Aug 23:31:58 23:40:30 60° 266° (W) 23:48:57 435.465 / 435.565
50 SAT 03 Aug 23:33:27 23:36:34 21° 273° (W) 23:39:40 437.505
DX 1 03 Aug 23:39:10 23:42:16 18° 277° (W) 23:45:19 434.975-435.025
UNISAT 6 03 Aug 23:43:52 23:48:32 70° 109° (ESE) 23:53:15 437.425
AUBIESAT-1 03 Aug 23:45:32 23:50:20 76° 122° (ESE) 23:55:06 437.475
STARS 03 Aug 23:46:47 23:50:29 27° 33° (NNE) 23:54:13 437.465
Oscar 19 03 Aug 23:49:02 23:51:01 12° 67° (ENE) 23:53:09 437.125/150
DUCHIFAT 1 03 Aug 23:49:38 23:53:44 44° 101° (E) 23:57:50 145.980
TISAT 1 03 Aug 23:53:15 23:57:23 56° 254° (WSW) 00:01:33 437.305
SPROUT 03 Aug 23:53:46 23:57:54 46° 259° (W) 00:02:04 437.525
NANOSAT C BR1 03 Aug 23:55:16 23:59:24 48° 102° (ESE) 00:03:34 145.865
QB50P1 03 Aug 23:55:18 23:59:28 49° 102° (ESE) 00:03:38 145.935-145.965
MOZHAYETS 4 03 Aug 23:57:59 00:01:27 21° 20° (NNE) 00:04:56
BEESAT 2 03 Aug 23:59:31 00:02:19 18° 134° (SE) 00:05:10 435.950
VELOX 1 04 Aug 00:05:06 00:08:14 18° 278° (W) 00:11:19 145.980
YUBILEINY 04 Aug 00:09:15 00:17:51 65° 97° (E) 00:26:33 435.215
PRISM 04 Aug 00:11:53 00:14:44 18° 343° (NNW) 00:17:32 437.425
AIST 2 04 Aug 00:16:38 00:18:17 12° 124° (ESE) 00:20:02 435.215
BEESAT 04 Aug 00:17:41 00:22:31 84° 63° (ENE) 00:27:22 436.000
KKS-1 04 Aug 00:20:35 00:24:45 41° 46° (NE) 00:28:56 437.445
JAS-2 04 Aug 00:21:22 00:24:35 13° 49° (NE) 00:28:04 435.910
CUBESAT XI-V 04 Aug 00:24:35 00:27:42 18° 1° (N) 00:30:48 437.345
TIGRISAT 04 Aug 00:26:02 00:30:41 77° 298° (WNW) 00:35:25 435.000
ESTCUBE 1 04 Aug 00:29:11 00:32:17 18° 281° (W) 00:35:19 437.505/2401.250
ANTELSAT 04 Aug 00:29:12 00:33:51 73° 299° (WNW) 00:38:34 437.575/2403.000
STRAND 1 04 Aug 00:29:37 00:33:38 24° 349° (N) 00:37:38 437.568
BEESAT 3 04 Aug 00:33:56 00:37:19 25° 145° (SE) 00:40:44 437.485
SWISSCUBE 04 Aug 00:38:48 00:43:39 76° 249° (WSW) 00:48:29 437.505
POLYITAN 1 04 Aug 00:40:08 00:44:27 85° 112° (ESE) 00:48:46 437.675
BUGSAT 1 04 Aug 00:43:37 00:47:41 70° 108° (ESE) 00:51:47 437.445
AIST 1 04 Aug 00:48:25 00:49:46 11° 290° (WNW) 00:51:01
M-CUBED/EXP-1 PRIME 04 Aug 00:53:55 00:58:37 57° 319° (NW) 01:03:21 437.505
O/OREOS (USA 219) 04 Aug 00:54:41 00:57:58 20° 110° (ESE) 01:01:20 437.305
POPSAT HIP 1 04 Aug 00:55:59 01:00:16 81° 296° (WNW) 01:04:33 437.405
ITUPSAT 1 04 Aug 01:01:27 01:06:16 63° 253° (WSW) 01:11:05 437.325
QB50P2 04 Aug 01:04:29 01:08:46 73° 299° (WNW) 01:13:03 145.880/145.840
GONETS M04 04 Aug 01:09:52 01:11:53 11° 26° (NNE) 01:14:04
CUBEBUG 1 04 Aug 01:10:14 01:11:43 11° 289° (WNW) 01:13:05 437.445
Gurwin Techsat 1B 04 Aug 01:12:08 01:15:31 17° 74° (ENE) 01:19:00 435.225
ITAMSAT 1 04 Aug 01:16:25 01:19:29 16° 74° (ENE) 01:22:39 435.822/435.867
Cosmos 2504 04 Aug 01:17:04 01:23:50 38° 79° (E) 01:31:09 435.465 / 435.565
AUBIESAT-1 04 Aug 01:20:20 01:24:55 49° 323° (NW) 01:29:30 437.475
UNISAT 6 04 Aug 01:20:47 01:25:13 45° 311° (NW) 01:29:42 437.425
STARS 04 Aug 01:22:02 01:26:22 60° 56° (NE) 01:30:45 437.465
DUCHIFAT 1 04 Aug 01:25:32 01:29:43 59° 303° (WNW) 01:33:54 145.980
Oscar 19 04 Aug 01:27:24 01:32:05 33° 92° (E) 01:36:47 437.125/150
RS-15 04 Aug 01:28:07 01:39:16 72° 177° (S) 01:51:01 29.354- 29.394
Cosmos 2491 04 Aug 01:28:50 01:35:53 28° 294° (WNW) 01:42:47 435.465 / 435.565
TISAT 1 04 Aug 01:31:06 01:34:02 18° 278° (W) 01:36:56 437.305
NANOSAT C BR1 04 Aug 01:31:11 01:35:21 55° 304° (NW) 01:39:32 145.865
QB50P1 04 Aug 01:31:16 01:35:27 55° 305° (NW) 01:39:37 145.935-145.965
SPROUT 04 Aug 01:32:31 01:35:03 15° 283° (WNW) 01:37:33 437.525
MOZHAYETS 4 04 Aug 01:33:29 01:37:45 36° 43° (NE) 01:42:02
BEESAT 2 04 Aug 01:35:45 01:39:31 35° 156° (SSE) 01:43:18 435.950
PRISM 04 Aug 01:46:21 01:48:57 16° 7° (N) 01:51:34 437.425
AIST 2 04 Aug 01:52:08 01:55:45 27° 146° (SE) 01:59:23 435.215
AO-7 04 Aug 01:55:06 01:59:48 16° 61° (ENE) 02:04:43 29.400- 29.500
BEESAT 04 Aug 01:56:26 02:00:51 35° 266° (W) 02:05:15 436.000
KKS-1 04 Aug 01:56:45 02:01:13 76° 249° (WSW) 02:05:42 437.445
CUBESAT XI-V 04 Aug 02:00:19 02:03:55 23° 25° (NNE) 02:07:33 437.345
TIGRISAT 04 Aug 02:02:54 02:07:02 33° 320° (NW) 02:11:12 435.000
ANTELSAT 04 Aug 02:06:05 02:10:13 32° 321° (NW) 02:14:21 437.575/2403.000
JAS-2 04 Aug 02:06:07 02:12:32 28° 76° (ENE) 02:19:12 435.910
YUBILEINY 04 Aug 02:06:09 02:14:55 67° 305° (NW) 02:23:44 435.215
STRAND 1 04 Aug 02:07:34 02:11:38 24° 14° (NNE) 02:15:42 437.568
BEESAT 3 04 Aug 02:10:44 02:14:37 42° 167° (SSE) 02:18:30 437.485
POLYITAN 1 04 Aug 02:16:12 02:20:07 35° 315° (NW) 02:24:02 437.675
SWISSCUBE 04 Aug 02:18:08 02:22:14 27° 272° (W) 02:26:18 437.505
BUGSAT 1 04 Aug 02:19:15 02:23:03 39° 311° (NW) 02:26:52 437.445
M-CUBED/EXP-1 PRIME 04 Aug 02:28:35 02:32:51 34° 341° (NNW) 02:37:10 437.505
POPSAT HIP 1 04 Aug 02:32:01 02:35:48 31° 319° (NW) 02:39:34 437.405
O/OREOS (USA 219) 04 Aug 02:32:14 02:36:38 52° 133° (SE) 02:41:06 437.305
QB50P2 04 Aug 02:40:32 02:44:15 29° 321° (NW) 02:47:57 145.880/145.840
HORYU 2 04 Aug 02:40:59 02:43:04 13° 74° (ENE) 02:45:15 437.375
ITUPSAT 1 04 Aug 02:41:16 02:45:04 22° 276° (W) 02:48:49 437.325
Gurwin Techsat 1B 04 Aug 02:51:48 02:56:55 45° 98° (E) 03:02:03 435.225
AUBIESAT-1 04 Aug 02:54:50 02:58:58 32° 346° (NNW) 03:03:11 437.475
ITAMSAT 1 04 Aug 02:55:29 03:00:26 42° 98° (E) 03:05:23 435.822/435.867
UNISAT 6 04 Aug 02:57:33 03:01:13 24° 334° (NNW) 03:04:55 437.425
STARS 04 Aug 02:58:45 03:02:59 46° 258° (WSW) 03:07:17 437.465
GONETS M04 04 Aug 02:59:21 03:05:15 21° 55° (NE) 03:11:17
DUCHIFAT 1 04 Aug 03:01:27 03:04:59 26° 325° (NW) 03:08:28 145.980
Oscar 19 04 Aug 03:06:51 03:12:04 88° 109° (ESE) 03:17:19 437.125/150
NANOSAT C BR1 04 Aug 03:07:08 03:10:36 25° 327° (NNW) 03:14:04 145.865
QB50P1 04 Aug 03:07:15 03:10:43 25° 327° (NNW) 03:14:10 145.935-145.965
Cosmos 2504 04 Aug 03:07:43 03:15:17 82° 106° (ESE) 03:23:30 435.465 / 435.565
MOZHAYETS 4 04 Aug 03:09:59 03:14:41 89° 50° (NE) 03:19:24
BEESAT 2 04 Aug 03:13:07 03:17:05 45° 179° (S) 03:21:02 435.950
PRISM 04 Aug 03:20:00 03:23:19 23° 30° (NNE) 03:26:38 437.425
Cosmos 2491 04 Aug 03:25:44 03:29:46 14° 322° (NW) 03:33:37 435.465 / 435.565
AIST 2 04 Aug 03:29:38 03:33:42 44° 168° (SSE) 03:37:45 435.215
CUSAT 1 04 Aug 03:29:46 03:31:46 19° 93° (E) 03:33:58 437.405
DANDE 04 Aug 03:33:20 03:34:51 14° 91° (E) 03:36:27 436.750
KKS-1 04 Aug 03:34:51 03:38:33 25° 272° (W) 03:42:14 437.445
CUBESAT XI-V 04 Aug 03:36:10 03:40:34 43° 48° (NE) 03:44:58 437.345
BEESAT 04 Aug 03:38:09 03:40:11 12° 290° (WNW) 03:42:06 436.000
TIGRISAT 04 Aug 03:39:27 03:42:48 20° 343° (NNW) 03:46:10 435.000
RS-15 04 Aug 03:39:52 03:51:00 63° 207° (SSW) 04:02:38 29.354- 29.394
ANTELSAT 04 Aug 03:42:38 03:45:59 20° 345° (NNW) 03:49:20 437.575/2403.000
STRAND 1 04 Aug 03:45:11 03:49:52 37° 38° (NE) 03:54:34 437.568
AO-7 04 Aug 03:48:05 03:55:38 36° 90° (E) 04:03:13 29.400- 29.500
BEESAT 3 04 Aug 03:48:12 03:52:07 43° 190° (S) 03:56:00 437.485
JAS-2 04 Aug 03:51:31 03:59:07 60° 101° (E) 04:06:56 435.910
POLYITAN 1 04 Aug 03:52:05 03:55:10 20° 338° (NNW) 03:58:13 437.675
BUGSAT 1 04 Aug 03:54:48 03:57:45 20° 334° (NNW) 04:00:42 437.445
M-CUBED/EXP-1 PRIME 04 Aug 04:02:45 04:06:47 30° 4° (N) 04:10:57 437.505
YUBILEINY 04 Aug 04:05:10 04:13:24 41° 334° (NNW) 04:21:41 435.215
POPSAT HIP 1 04 Aug 04:07:48 04:10:44 18° 342° (NNW) 04:13:39 437.405
O/OREOS (USA 219) 04 Aug 04:11:27 04:16:00 79° 337° (NNW) 04:20:37 437.305
QB50P2 04 Aug 04:16:17 04:19:09 18° 344° (NNW) 04:22:01 145.880/145.840
HORYU 2 04 Aug 04:16:46 04:21:00 38° 97° (E) 04:25:15 437.375
Cosmos 2499 04 Aug 04:23:40 04:28:36 18° 51° (NE) 04:33:55 435.465 / 435.565
AUBIESAT-1 04 Aug 04:28:49 04:32:50 30° 8° (N) 04:36:58 437.475
Gurwin Techsat 1B 04 Aug 04:31:56 04:37:17 73° 302° (WNW) 04:42:36 435.225
UNISAT 6 04 Aug 04:33:42 04:36:48 18° 357° (N) 04:39:58 437.425
ITAMSAT 1 04 Aug 04:35:07 04:40:20 75° 302° (WNW) 04:45:33 435.822/435.867
DUCHIFAT 1 04 Aug 04:37:01 04:39:43 17° 349° (NNW) 04:42:26 145.980
STARS 04 Aug 04:37:51 04:40:32 15° 282° (WNW) 04:43:11 437.465
NANOSAT C BR1 04 Aug 04:42:40 04:45:21 17° 350° (N) 04:48:02 145.865
QB50P1 04 Aug 04:42:48 04:45:30 17° 350° (N) 04:48:11 145.935-145.965
Oscar 19 04 Aug 04:46:21 04:51:11 41° 319° (NW) 04:56:02 437.125/150
CUTE-I 04 Aug 04:46:48 04:49:19 13° 69° (ENE) 04:51:59 437.470
MOZHAYETS 4 04 Aug 04:48:16 04:52:27 31° 269° (W) 04:56:38
BEESAT 2 04 Aug 04:50:50 04:54:39 36° 202° (SSW) 04:58:26 435.950
GONETS M04 04 Aug 04:52:00 05:00:00 44° 83° (E) 05:08:06
PRISM 04 Aug 04:54:04 04:58:07 50° 53° (NE) 05:02:11 437.425
